COSMOS 249 DEB, 19317

Orbit data source: Space-Track

COSMOS 249 DEB, 19317 is space debris in LEO originally from a launch on Sun, 20 Oct 1968 UTC launched from the Tyuratam Missile And Space Complex (TTMTR). Debris objects in space refer to the collection of defunct objects orbiting the Earth. Examples of debris include non-operational satellites, rocket bodies, and fragments generated from explosions, collisions, or faulty payload assembly.

Loading next visibility...
Identifier
19317, 1968-091DH
Orbit
LEO
Country
Flag of CISCIS
Related business
Manufacturer
Unknown
Mission
Spacecraft
Bus & Motor
Unknown
Mass
Unknown
Launch date (UTC)
1968-10-20 (58 years ago)
Launch vehicle
Unknown
Launch site
Tyuratam Missile And Space Complex (TTMTR)
Object type
Payload
Rocket body
Debris
Shape & HBR
Unknown shape, 0.1 m
Radar Cross Section
Small (<0.1 m²)

Expand to show TLE details & history
Last TLE update: 13 hours ago

TLE from 13 hours ago
0 COSMOS 249 DEB
1 19317U 68091DH  26125.48348367  .00000163  00000-0  99607-4 0  9999
2 19317  62.8480  34.8645 0723308 211.8138 143.7209 13.42907901841632
Epoch: 2026-05-05T11:36Z
TLE epoch observation values (Epoch: 2026-05-05T11:36:12.989Z)
Latitude
-0.00003°
Longitude
-2.54731°
Altitude
1,548.73 km
Speed
6.877 km/s
True Right ascension
02h 19m 27s
True Declination
0° 00' 00"
Sunlit
Object was in daylight at epoch
Visualization orbit readout
Latitude
Unknown
Longitude
Unknown
Altitude
Unknown
Speed
Unknown
Apparent Right ascension
Unknown
Apparent Declination
Unknown
Sunlit
N/A
Visualization observer readout
Local Sidereal Time
08:10:32
Azimuth
Unknown
Elevation
Unknown
Doppler factor
Unknown
Orbital elements
Apogee altitude
1,638.066 km
Perigee altitude
556.649 km
Semi-major axis
7,475.494 km
Eccentricity
0.07233
Inclination
62.848°
RAAN
34.8645°
Arg. of periapsis
211.8138°
True anomaly
148.28658°
Mean anomaly
143.7209°
Eccentric anomaly
146.03617°
Mean motion
3.35802 °/min
Orbital period
107.21 mins
BSTAR
0.000099607
Loading maneuver chart data...
Computing Atmospheric mass density...

Documentation

Showing up to 5 results
|